Location: Aix-en-Ergny
(50.5839°N, 1.9996°E)
Time: 04:05:03
(UTC+00:00)

ATLAS 2AS CENTAUR R/B - Pass Details

Date: 23 October 2019
Orbit: 926 x 1286 km, 63.7° (Epoch: 09 November)

Event Time Altitude Azimuth Distance (km) Brightness Sun altitude
Exits shadow 01:50:46 31° 103° (ESE) 2,100 4.3 -42.0°
Drops below altitude 10° 01:56:49 10° 55° (NE) 3,288 5.9 -41.3°
Sets 01:59:57 0° 46° (NE) 4,242 6.7 -40.9°
